Date String (YYYY-MM-DD hh:mm:ss) UTC,Instrument flags,absolute air pressure of the measurement (hPa),sample flow rate (lpm),inlet stack bypass flow (lpm),air temperature of the measurement (°C),ambient temperature measured by the external sensor (°C),aerosol sample conditioner tube jacket temperature (°C),OPC LED temperature (°C),internal box temperature (°C),relative humidity of the measurement (%),span deviation,mass concentration of particles derived from Lorenz-Mie calculation of OPC scattering (μg/m³),mass concentration of particles derived from Lorenz-Mie calculation of OPC scattering (μg/m³),mass concentration of particles derived from Lorenz-Mie calculation of OPC scattering (μg/m³)
DateTimeUTC,F1_M11,P_M11,Q1_M11,Q2_M11,T1_M11,T2_M11,T3_M11,T4_M11,T5_M11,U1_M11,ZSPAN_M11,X2_M11,X0_M11,X1_M11
2024-04-19 09:00:00,SystemResetWarning,0832.4,5.01,000.00,019.8,019.2,000.0,028.2,021.5,024.7,0000.0,0004.10,0004.98,0003.90
2024-04-19 09:01:00,SystemResetWarning,0832.4,5.00,000.00,019.8,019.2,000.0,028.3,021.6,024.4,0000.0,0004.04,0004.90,0003.84
2024-04-19 09:02:00,SystemResetWarning,0832.4,5.00,000.00,019.8,019.2,000.0,028.3,021.6,024.4,0000.0,0003.99,0004.81,0003.78
2024-04-19 09:03:00,SystemResetWarning,0832.4,5.00,000.00,019.8,019.2,000.0,028.3,021.6,024.3,0000.0,0003.95,0004.81,0003.74
2024-04-19 09:04:00,SystemResetWarning,0832.4,4.99,000.00,019.8,019.2,000.0,028.3,021.6,024.3,0000.0,0003.95,0004.85,0003.72
2024-04-19 09:05:00,SystemResetWarning,0832.5,4.99,000.00,019.8,019.2,000.0,028.3,021.6,024.3,0000.0,0003.93,0004.84,0003.70
2024-04-19 09:06:00,SystemResetWarning,0832.4,5.01,000.00,019.8,019.2,000.0,028.3,021.6,024.3,0000.0,0003.89,0004.73,0003.66
2024-04-19 09:07:00,SystemResetWarning,0832.4,5.01,000.00,019.8,019.2,000.0,028.3,021.6,024.3,0000.0,0003.84,0004.56,0003.64
2024-04-19 09:08:00,SystemResetWarning,0832.5,5.00,000.00,019.8,019.2,000.0,028.3,021.6,024.3,0000.0,0003.84,0004.55,0003.64
2024-04-19 09:09:00,SystemResetWarning,0832.5,4.99,000.00,019.8,019.2,000.0,028.3,021.6,024.3,0000.0,0003.84,0004.49,0003.66
2024-04-19 09:10:00,SystemResetWarning,0832.5,4.99,000.00,019.8,019.2,000.0,028.3,021.6,024.3,0000.0,0003.88,0004.56,0003.69
2024-04-19 09:11:00,SystemResetWarning,0832.5,5.00,000.00,019.8,019.3,000.0,028.3,021.6,024.3,0000.0,0003.93,0004.63,0003.74
2024-04-19 09:12:00,SystemResetWarning,0832.5,4.99,000.00,019.8,019.3,000.0,028.3,021.6,024.3,0000.0,0003.98,0004.70,0003.80
2024-04-19 09:13:00,SystemResetWarning,0832.3,5.02,000.00,019.8,019.3,000.0,028.3,021.6,024.3,0000.0,0004.02,0004.75,0003.85
2024-04-19 09:14:00,SystemResetWarning,0832.3,5.00,000.00,019.8,019.3,000.0,028.3,021.6,024.4,0000.0,0004.05,0004.74,0003.89
2024-04-19 09:15:00,SystemResetWarning,0832.3,4.99,000.00,019.8,019.3,000.0,028.3,021.6,024.4,0000.0,0004.04,0004.63,0003.90
2024-04-19 09:16:00,SystemResetWarning,0832.2,4.99,000.00,019.8,019.3,000.0,028.3,021.6,024.4,0000.0,0004.04,0004.54,0003.92
2024-04-19 09:17:00,SystemResetWarning,0832.2,5.01,000.00,019.8,019.3,000.0,028.3,021.6,024.4,0000.0,0004.06,0004.55,0003.96
2024-04-19 09:18:00,SystemResetWarning,0832.2,5.01,000.00,019.8,019.3,000.0,028.3,021.6,024.3,0000.0,0004.13,0004.69,0004.01
2024-04-19 09:19:00,SystemResetWarning,0832.2,5.00,000.00,019.8,019.3,000.0,028.3,021.6,024.3,0000.0,0004.18,0004.75,0004.08
2024-04-19 09:20:00,SystemResetWarning,0832.3,5.01,000.00,019.8,019.3,000.0,028.3,021.6,024.3,0000.0,0004.23,0004.82,0004.12
2024-04-19 09:21:00,SystemResetWarning,0832.3,5.00,000.00,019.8,019.3,000.0,028.3,021.6,024.3,0000.0,0004.26,0004.82,0004.15
2024-04-19 09:22:00,SystemResetWarning,0832.3,5.00,000.00,019.8,019.3,000.0,028.3,021.6,024.3,0000.0,0004.26,0004.75,0004.18
2024-04-19 09:23:00,SystemResetWarning,0832.3,4.99,000.00,019.8,019.3,000.0,028.3,021.6,024.3,0000.0,0004.27,0004.75,0004.19
2024-04-19 09:24:00,SystemResetWarning,0832.2,4.99,000.00,019.8,019.3,000.0,028.3,021.6,024.3,0000.0,0004.29,0004.77,0004.21
2024-04-19 09:25:00,SystemResetWarning,0832.3,5.00,000.00,019.8,019.3,000.0,028.3,021.6,024.3,0000.0,0004.29,0004.77,0004.22
2024-04-19 09:26:00,SystemResetWarning,0832.2,5.01,000.00,019.8,019.3,000.0,028.3,021.6,024.3,0000.0,0004.30,0004.79,0004.23
2024-04-19 09:27:00,SystemResetWarning,0832.2,5.00,000.00,019.8,019.3,000.0,028.3,021.6,024.3,0000.0,0004.31,0004.80,0004.23
2024-04-19 09:28:00,SystemResetWarning,0832.2,5.00,000.00,019.8,019.3,000.0,028.3,021.6,024.3,0000.0,0004.30,0004.82,0004.22
2024-04-19 09:29:00,SystemResetWarning,0832.3,5.00,000.00,019.8,019.3,000.0,028.3,021.6,024.3,0000.0,0004.24,0004.71,0004.18
2024-04-19 09:30:00,SystemResetWarning,0832.4,5.00,000.00,019.8,019.3,000.0,028.3,021.6,024.3,0000.0,0004.19,0004.63,0004.12
2024-04-19 09:31:00,SystemResetWarning,0832.4,5.00,000.00,019.8,019.3,000.0,028.3,021.6,024.3,0000.0,0004.13,0004.52,0004.07
2024-04-19 09:32:00,SystemResetWarning,0832.3,5.00,000.00,019.8,019.3,000.0,028.3,021.6,024.3,0000.0,0004.07,0004.39,0004.01
2024-04-19 09:33:00,SystemResetWarning,0832.3,5.00,000.00,019.8,019.3,000.0,028.3,021.6,024.4,0000.0,0004.01,0004.30,0003.95
2024-04-19 09:34:00,SystemResetWarning,0832.3,5.00,000.00,019.8,019.3,000.0,028.3,021.6,024.4,0000.0,0003.95,0004.20,0003.90
2024-04-19 09:35:00,SystemResetWarning,0832.3,5.00,000.00,019.8,019.3,000.0,028.3,021.6,024.4,0000.0,0003.90,0004.08,0003.86
2024-04-19 09:36:00,SystemResetWarning,0832.3,5.00,000.00,019.8,019.3,000.0,028.3,021.6,024.3,0000.0,0003.85,0003.98,0003.81
2024-04-19 09:37:00,SystemResetWarning,0832.3,5.00,000.00,019.8,019.3,000.0,028.3,021.6,024.3,0000.0,0003.82,0003.92,0003.78
2024-04-19 09:38:00,SystemResetWarning,0832.4,5.00,000.00,019.8,019.3,000.0,028.3,021.6,024.3,0000.0,0003.79,0003.87,0003.75
2024-04-19 09:39:00,SystemResetWarning,0832.4,5.00,000.00,019.8,019.3,000.0,028.3,021.6,024.3,0000.0,0003.77,0003.78,0003.73
2024-04-19 09:40:00,SystemResetWarning,0832.3,5.00,000.00,019.8,019.3,000.0,028.3,021.6,024.3,0000.0,0003.78,0003.78,0003.74
2024-04-19 09:41:00,SystemResetWarning,0832.3,5.00,000.00,019.8,019.3,000.0,028.3,021.6,024.3,0000.0,0003.78,0003.76,0003.75
2024-04-19 09:42:00,SystemResetWarning,0832.4,5.00,000.00,019.8,019.3,000.0,028.3,021.6,024.9,0000.0,0003.79,0003.76,0003.76
2024-04-19 09:43:00,SystemResetWarning,0832.5,5.00,000.00,019.8,019.3,000.0,028.3,021.6,025.3,0000.0,0003.81,0003.80,0003.78
2024-04-19 09:44:00,SystemResetWarning,0832.4,5.00,000.00,019.8,019.3,000.0,028.3,021.6,024.7,0000.0,0003.84,0003.92,0003.81
2024-04-19 09:45:00,SystemResetWarning,0832.4,5.00,000.00,019.8,019.3,000.0,028.3,021.6,024.6,0000.0,0003.87,0004.42,0003.84
2024-04-19 09:46:00,SystemResetWarning,0832.4,5.00,000.00,019.8,019.3,000.0,028.3,021.6,024.5,0000.0,0003.91,0004.51,0003.87
2024-04-19 09:47:00,SystemResetWarning,0832.4,5.00,000.00,019.8,019.3,000.0,028.3,021.6,024.5,0000.0,0003.95,0004.60,0003.91
2024-04-19 09:48:00,SystemResetWarning,0832.4,5.00,000.00,019.8,019.3,000.0,028.3,021.6,024.5,0000.0,0003.99,0004.66,0003.94
2024-04-19 09:49:00,SystemResetWarning,0832.3,5.00,000.00,019.8,019.3,000.0,028.3,021.6,024.4,0000.0,0004.04,0004.73,0003.99
2024-04-19 09:50:00,SystemResetWarning,0832.4,5.00,000.00,019.8,019.3,000.0,028.3,021.6,024.4,0000.0,0004.08,0004.81,0004.03
2024-04-19 09:51:00,SystemResetWarning,0832.4,5.00,000.00,019.8,019.3,000.0,028.3,021.6,024.4,0000.0,0004.09,0004.79,0004.05
2024-04-19 09:52:00,SystemResetWarning,0832.4,5.00,000.00,019.8,019.3,000.0,028.3,021.6,024.4,0000.0,0004.12,0004.87,0004.07
2024-04-19 09:53:00,SystemResetWarning,0832.4,5.01,000.00,019.8,019.3,000.0,028.3,021.6,024.4,0000.0,0004.14,0004.91,0004.09
2024-04-19 09:54:00,SystemResetWarning,0832.5,5.01,000.00,019.8,019.3,000.0,028.3,021.6,024.4,0000.0,0004.16,0004.94,0004.11
2024-04-19 09:55:00,SystemResetWarning,0832.5,5.00,000.00,019.8,019.3,000.0,028.3,021.6,024.3,0000.0,0004.19,0004.96,0004.12
2024-04-19 09:56:00,SystemResetWarning,0832.6,5.00,000.00,019.8,019.3,000.0,028.3,021.6,024.3,0000.0,0004.20,0004.48,0004.13
2024-04-19 09:57:00,SystemResetWarning,0832.5,5.00,000.00,019.8,019.3,000.0,028.3,021.6,024.3,0000.0,0004.20,0004.45,0004.14
2024-04-19 09:58:00,SystemResetWarning,0832.5,5.00,000.00,019.8,019.3,000.0,028.3,021.6,024.4,0000.0,0004.19,0004.40,0004.14
2024-04-19 09:59:00,SystemResetWarning,0832.5,5.00,000.00,019.8,019.3,000.0,028.3,021.6,024.3,0000.0,0004.20,0004.44,0004.15
